Time,TemperatureF,DewpointF,PressureIn,WindDirection,WindDirectionDegrees,WindSpeedMPH,WindSpeedGustMPH,Humidity,HourlyPrecipIn,Conditions,Clouds,dailyrainin,SolarRadiationWatts/m^2,SoftwareType,DateUTC
2013-02-21 00:00:00,29.2,25.8,30.31,NNE,27,1.0,1.0,87,0.00,,,0.00,0,Wunderground v.1.15,2013-02-20 23:00:00,
2013-02-21 00:05:00,29.0,25.6,30.31,NNE,26,1.0,1.0,87,0.00,,,0.00,0,Wunderground v.1.15,2013-02-20 23:05:00,
2013-02-21 00:10:00,29.0,25.6,30.31,NNE,27,0.0,0.0,87,0.00,,,0.00,0,Wunderground v.1.15,2013-02-20 23:10:00,
2013-02-21 00:20:00,29.0,25.9,30.31,NNE,16,1.0,1.0,88,0.00,,,0.00,0,Wunderground v.1.15,2013-02-20 23:20:00,
2013-02-21 00:30:00,29.0,25.9,30.31,East,79,1.0,1.0,88,0.00,,,0.00,0,Wunderground v.1.15,2013-02-20 23:30:00,
2013-02-21 00:40:00,29.0,25.9,30.31,NE,49,1.0,1.0,88,0.00,,,0.00,0,Wunderground v.1.15,2013-02-20 23:40:00,
2013-02-21 00:50:00,28.9,25.8,30.31,ENE,58,0.0,0.0,88,0.00,,,0.00,0,Wunderground v.1.15,2013-02-20 23:50:00,
2013-02-21 00:55:00,28.9,25.8,30.31,NE,56,1.0,1.0,88,0.00,,,0.00,0,Wunderground v.1.15,2013-02-20 23:55:00,
2013-02-21 01:00:00,28.8,25.7,30.31,NE,56,0.0,1.0,88,0.00,,,0.00,0,Wunderground v.1.15,2013-02-21 00:00:00,
2013-02-21 01:05:00,28.8,25.7,30.31,NNE,30,0.0,1.0,88,0.00,,,0.00,0,Wunderground v.1.15,2013-02-21 00:05:00,
2013-02-21 01:15:00,28.7,25.6,30.31,North,354,0.0,0.0,88,0.00,,,0.00,0,Wunderground v.1.15,2013-02-21 00:15:00,
2013-02-21 01:25:00,28.6,25.5,30.31,North,2,0.0,0.0,88,0.00,,,0.00,0,Wunderground v.1.15,2013-02-21 00:25:00,
2013-02-21 01:30:00,28.5,25.4,30.31,North,2,0.0,0.0,88,0.00,,,0.00,0,Wunderground v.1.15,2013-02-21 00:30:00,
2013-02-21 01:40:00,28.3,25.5,30.31,NNW,348,0.0,0.0,89,0.00,,,0.00,0,Wunderground v.1.15,2013-02-21 00:40:00,
2013-02-21 01:45:00,28.3,25.5,30.31,NNW,348,0.0,0.0,89,0.00,,,0.00,0,Wunderground v.1.15,2013-02-21 00:45:00,
2013-02-21 01:50:00,28.2,25.4,30.31,NNW,346,0.0,0.0,89,0.00,,,0.00,0,Wunderground v.1.15,2013-02-21 00:50:00,
2013-02-21 02:00:00,28.1,25.0,30.31,North,354,0.0,0.0,88,0.00,,,0.00,0,Wunderground v.1.15,2013-02-21 01:00:00,
2013-02-21 02:05:00,28.0,24.9,30.31,North,355,0.0,0.0,88,0.00,,,0.00,0,Wunderground v.1.15,2013-02-21 01:05:00,
2013-02-21 02:15:00,27.9,24.8,30.31,North,355,0.0,0.0,88,0.00,,,0.00,0,Wunderground v.1.15,2013-02-21 01:15:00,
2013-02-21 02:25:00,27.8,24.7,30.31,North,356,0.0,0.0,88,0.00,,,0.00,0,Wunderground v.1.15,2013-02-21 01:25:00,
2013-02-21 02:30:00,27.7,24.6,30.31,North,356,0.0,0.0,88,0.00,,,0.00,0,Wunderground v.1.15,2013-02-21 01:30:00,
2013-02-21 02:40:00,27.6,24.5,30.31,North,356,0.0,0.0,88,0.00,,,0.00,0,Wunderground v.1.15,2013-02-21 01:40:00,
2013-02-21 02:50:00,27.4,24.3,30.31,North,358,0.0,0.0,88,0.00,,,0.00,0,Wunderground v.1.15,2013-02-21 01:50:00,
2013-02-21 03:00:00,27.4,24.3,30.30,NE,35,0.0,0.0,88,0.00,,,0.00,0,Wunderground v.1.15,2013-02-21 02:00:00,
2013-02-21 03:05:00,27.4,24.0,30.30,NE,49,1.0,5.0,87,0.00,,,0.00,0,Wunderground v.1.15,2013-02-21 02:05:00,
2013-02-21 03:15:00,27.3,23.9,30.30,ENE,78,4.0,5.0,87,0.00,,,0.00,0,Wunderground v.1.15,2013-02-21 02:15:00,
2013-02-21 03:25:00,27.2,23.8,30.30,ENE,72,1.0,2.0,87,0.00,,,0.00,0,Wunderground v.1.15,2013-02-21 02:25:00,
2013-02-21 03:30:00,27.2,23.8,30.30,ENE,72,1.0,1.0,87,0.00,,,0.00,0,Wunderground v.1.15,2013-02-21 02:30:00,
2013-02-21 03:35:00,27.1,23.7,30.30,ENE,68,0.0,1.0,87,0.00,,,0.00,0,Wunderground v.1.15,2013-02-21 02:35:00,
2013-02-21 03:45:00,27.0,23.6,30.30,NE,49,0.0,0.0,87,0.00,,,0.00,0,Wunderground v.1.15,2013-02-21 02:45:00,
2013-02-21 03:55:00,26.9,23.5,30.30,NE,49,0.0,3.0,87,0.00,,,0.00,0,Wunderground v.1.15,2013-02-21 02:55:00,
2013-02-21 04:05:00,26.8,23.4,30.30,NE,49,0.0,2.0,87,0.00,,,0.00,0,Wunderground v.1.15,2013-02-21 03:05:00,
2013-02-21 04:15:00,26.7,23.4,30.29,NE,49,0.0,0.0,87,0.00,,,0.00,0,Wunderground v.1.15,2013-02-21 03:15:00,
2013-02-21 04:20:00,26.6,23.3,30.29,NE,49,0.0,0.0,87,0.00,,,0.00,0,Wunderground v.1.15,2013-02-21 03:20:00,
2013-02-21 04:30:00,26.6,23.5,30.29,NE,49,0.0,0.0,88,0.00,,,0.00,0,Wunderground v.1.15,2013-02-21 03:30:00,
2013-02-21 04:40:00,26.5,23.4,30.29,NNE,33,0.0,1.0,88,0.00,,,0.00,0,Wunderground v.1.15,2013-02-21 03:40:00,
2013-02-21 04:50:00,26.6,23.8,30.29,NNE,33,0.0,0.0,89,0.00,,,0.00,0,Wunderground v.1.15,2013-02-21 03:50:00,
2013-02-21 05:00:00,26.7,23.9,30.29,NNE,29,0.0,0.0,89,0.00,,,0.00,0,Wunderground v.1.15,2013-02-21 04:00:00,
2013-02-21 05:10:00,26.8,24.0,30.28,NNE,18,0.0,0.0,89,0.00,,,0.00,0,Wunderground v.1.15,2013-02-21 04:10:00,
2013-02-21 05:20:00,26.8,24.0,30.29,NNE,19,0.0,0.0,89,0.00,,,0.00,0,Wunderground v.1.15,2013-02-21 04:20:00,
2013-02-21 05:30:00,26.8,24.0,30.28,NNE,12,0.0,0.0,89,0.00,,,0.00,0,Wunderground v.1.15,2013-02-21 04:30:00,
2013-02-21 05:35:00,26.8,24.0,30.28,NNE,12,0.0,0.0,89,0.00,,,0.00,0,Wunderground v.1.15,2013-02-21 04:35:00,
2013-02-21 05:45:00,26.9,24.4,30.28,NNE,12,0.0,0.0,90,0.00,,,0.00,0,Wunderground v.1.15,2013-02-21 04:45:00,
2013-02-21 05:50:00,26.9,24.4,30.28,NNE,26,0.0,0.0,90,0.00,,,0.00,0,Wunderground v.1.15,2013-02-21 04:50:00,
2013-02-21 06:00:00,27.0,24.5,30.29,NNE,24,0.0,1.0,90,0.00,,,0.00,0,Wunderground v.1.15,2013-02-21 05:00:00,
2013-02-21 06:05:00,27.0,24.5,30.28,NNE,25,0.0,1.0,90,0.00,,,0.00,0,Wunderground v.1.15,2013-02-21 05:05:00,
2013-02-21 06:10:00,27.1,24.6,30.28,NNE,20,0.0,1.0,90,0.00,,,0.00,0,Wunderground v.1.15,2013-02-21 05:10:00,
2013-02-21 06:20:00,27.1,24.6,30.28,North,2,0.0,0.0,90,0.00,,,0.00,0,Wunderground v.1.15,2013-02-21 05:20:00,
2013-02-21 06:25:00,27.1,24.6,30.28,North,2,0.0,0.0,90,0.00,,,0.00,0,Wunderground v.1.15,2013-02-21 05:25:00,
2013-02-21 06:30:00,27.1,24.6,30.28,North,2,0.0,1.0,90,0.00,,,0.00,0,Wunderground v.1.15,2013-02-21 05:30:00,
2013-02-21 06:40:00,27.1,24.6,30.28,North,355,0.0,0.0,90,0.00,,,0.00,0,Wunderground v.1.15,2013-02-21 05:40:00,
2013-02-21 06:50:00,27.1,24.6,30.28,North,2,0.0,0.0,90,0.00,,,0.00,0,Wunderground v.1.15,2013-02-21 05:50:00,
2013-02-21 07:00:00,27.1,24.6,30.28,NNE,12,0.0,1.0,90,0.00,,,0.00,0,Wunderground v.1.15,2013-02-21 06:00:00,
2013-02-21 07:05:00,27.1,24.6,30.28,North,357,0.0,1.0,90,0.00,,,0.00,0,Wunderground v.1.15,2013-02-21 06:05:00,
2013-02-21 07:15:00,27.1,24.6,30.28,North,7,1.0,1.0,90,0.00,,,0.00,0,Wunderground v.1.15,2013-02-21 06:15:00,
2013-02-21 07:20:00,27.1,24.6,30.28,NNE,16,1.0,1.0,90,0.00,,,0.00,0,Wunderground v.1.15,2013-02-21 06:20:00,
2013-02-21 07:30:00,27.0,24.5,30.28,North,350,1.0,1.0,90,0.00,,,0.00,0,Wunderground v.1.15,2013-02-21 06:30:00,
2013-02-21 07:35:00,27.0,24.5,30.28,NNW,343,0.0,1.0,90,0.00,,,0.00,0,Wunderground v.1.15,2013-02-21 06:35:00,
2013-02-21 07:40:00,27.0,24.7,30.29,NNE,12,1.0,2.0,91,0.00,,,0.00,0,Wunderground v.1.15,2013-02-21 06:40:00,
2013-02-21 07:50:00,27.0,24.5,30.29,NNE,28,1.0,1.0,90,0.00,,,0.00,5,Wunderground v.1.15,2013-02-21 06:50:00,
2013-02-21 08:00:00,27.0,24.7,30.29,NNW,344,1.0,1.0,91,0.00,,,0.00,7,Wunderground v.1.15,2013-02-21 07:00:00,
2013-02-21 08:05:00,27.1,24.8,30.29,NW,322,1.0,1.0,91,0.00,,,0.00,9,Wunderground v.1.15,2013-02-21 07:05:00,
2013-02-21 08:10:00,27.1,24.6,30.29,NW,326,1.0,1.0,90,0.00,,,0.00,11,Wunderground v.1.15,2013-02-21 07:10:00,
2013-02-21 08:20:00,27.2,24.7,30.30,NNW,337,1.0,1.0,90,0.00,,,0.00,19,Wunderground v.1.15,2013-02-21 07:20:00,
2013-02-21 08:25:00,27.2,24.7,30.29,NNW,345,1.0,1.0,90,0.00,,,0.00,25,Wunderground v.1.15,2013-02-21 07:25:00,
2013-02-21 08:35:00,27.4,24.9,30.29,North,2,0.0,2.0,90,0.00,,,0.00,30,Wunderground v.1.15,2013-02-21 07:35:00,
2013-02-21 08:45:00,27.7,25.2,30.30,ENE,70,1.0,2.0,90,0.00,,,0.00,39,Wunderground v.1.15,2013-02-21 07:45:00,
2013-02-21 08:50:00,27.9,25.3,30.30,North,2,1.0,1.0,90,0.00,,,0.00,44,Wunderground v.1.15,2013-02-21 07:50:00,
2013-02-21 09:00:00,28.3,25.7,30.29,NE,56,1.0,2.0,90,0.00,,,0.00,46,Wunderground v.1.15,2013-02-21 08:00:00,
2013-02-21 09:05:00,28.5,25.9,30.29,NNE,26,1.0,2.0,90,0.00,,,0.00,46,Wunderground v.1.15,2013-02-21 08:05:00,
2013-02-21 09:10:00,28.7,26.1,30.29,NE,41,1.0,3.0,90,0.00,,,0.00,53,Wunderground v.1.15,2013-02-21 08:10:00,
2013-02-21 09:20:00,29.0,26.2,30.29,NNE,12,1.0,1.0,89,0.00,,,0.00,90,Wunderground v.1.15,2013-02-21 08:20:00,
2013-02-21 09:30:00,29.8,27.2,30.29,NNE,21,1.0,1.0,90,0.00,,,0.00,278,Wunderground v.1.15,2013-02-21 08:30:00,
2013-02-21 09:40:00,31.0,27.9,30.29,North,357,2.0,2.0,88,0.00,,,0.01,267,Wunderground v.1.15,2013-02-21 08:40:00,
2013-02-21 09:50:00,32.0,28.3,30.29,NNW,346,1.0,1.0,86,0.00,,,0.01,257,Wunderground v.1.15,2013-02-21 08:50:00,
2013-02-21 10:00:00,32.1,27.8,30.30,ESE,108,2.0,2.0,84,0.00,,,0.01,211,Wunderground v.1.15,2013-02-21 09:00:00,
2013-02-21 10:05:00,32.3,28.0,30.29,ENE,71,2.0,2.0,84,0.00,,,0.01,128,Wunderground v.1.15,2013-02-21 09:05:00,
2013-02-21 10:15:00,32.2,27.6,30.30,NNE,31,2.0,3.0,83,0.00,,,0.01,176,Wunderground v.1.15,2013-02-21 09:15:00,
2013-02-21 10:20:00,32.1,27.5,30.29,ESE,111,3.0,7.0,83,0.00,,,0.01,283,Wunderground v.1.15,2013-02-21 09:20:00,
2013-02-21 10:30:00,32.8,28.2,30.29,East,93,4.0,8.0,83,0.00,,,0.01,190,Wunderground v.1.15,2013-02-21 09:30:00,
2013-02-21 10:40:00,33.3,28.4,30.29,ENE,67,3.0,3.0,82,0.00,,,0.01,239,Wunderground v.1.15,2013-02-21 09:40:00,
2013-02-21 10:50:00,33.5,28.0,30.29,NNE,12,2.0,4.0,80,0.00,,,0.01,221,Wunderground v.1.15,2013-02-21 09:50:00,
2013-02-21 10:55:00,33.7,28.5,30.29,North,358,2.0,4.0,81,0.00,,,0.01,171,Wunderground v.1.15,2013-02-21 09:55:00,
2013-02-21 11:05:00,33.4,28.2,30.29,NE,39,3.0,3.0,81,0.00,,,0.01,202,Wunderground v.1.15,2013-02-21 10:05:00,
2013-02-21 11:10:00,33.7,28.5,30.29,NNE,17,2.0,2.0,81,0.00,,,0.01,216,Wunderground v.1.15,2013-02-21 10:10:00,
2013-02-21 11:20:00,34.0,28.2,30.29,East,100,3.0,3.0,79,0.00,,,0.01,248,Wunderground v.1.15,2013-02-21 10:20:00,
2013-02-21 11:30:00,34.0,28.2,30.29,NNW,336,3.0,3.0,79,0.00,,,0.01,179,Wunderground v.1.15,2013-02-21 10:30:00,
2013-02-21 11:40:00,33.9,28.1,30.29,NNW,336,2.0,2.0,79,0.00,,,0.01,197,Wunderground v.1.15,2013-02-21 10:40:00,
2013-02-21 11:45:00,34.1,28.0,30.29,NNE,29,3.0,3.0,78,0.00,,,0.01,190,Wunderground v.1.15,2013-02-21 10:45:00,
2013-02-21 11:55:00,33.8,27.7,30.29,East,91,2.0,14.0,78,0.00,,,0.01,91,Wunderground v.1.15,2013-02-21 10:55:00,
2013-02-21 12:05:00,33.9,27.8,30.28,North,2,3.0,3.0,78,0.00,,,0.01,192,Wunderground v.1.15,2013-02-21 11:05:00,
2013-02-21 12:15:00,35.0,28.2,30.28,East,85,3.0,5.0,76,0.00,,,0.01,204,Wunderground v.1.15,2013-02-21 11:15:00,
2013-02-21 12:20:00,34.7,27.6,30.28,NNW,344,3.0,3.0,75,0.00,,,0.01,158,Wunderground v.1.15,2013-02-21 11:20:00,
2013-02-21 12:30:00,34.8,27.7,30.27,ESE,113,3.0,3.0,75,0.00,,,0.01,387,Wunderground v.1.15,2013-02-21 11:30:00,
2013-02-21 12:40:00,35.2,27.7,30.27,ENE,72,2.0,3.0,74,0.00,,,0.01,105,Wunderground v.1.15,2013-02-21 11:40:00,
2013-02-21 12:50:00,34.5,27.4,30.27,ENE,64,6.0,6.0,75,0.00,,,0.01,207,Wunderground v.1.15,2013-02-21 11:50:00,
2013-02-21 13:00:00,34.9,27.1,30.26,NE,51,2.0,2.0,73,0.00,,,0.01,165,Wunderground v.1.15,2013-02-21 12:00:00,
2013-02-21 13:05:00,34.8,27.0,30.26,ENE,78,2.0,2.0,73,0.00,,,0.01,186,Wunderground v.1.15,2013-02-21 12:05:00,
2013-02-21 13:10:00,34.8,27.4,30.26,North,2,2.0,2.0,74,0.00,,,0.01,156,Wunderground v.1.15,2013-02-21 12:10:00,
2013-02-21 13:20:00,34.7,26.9,30.26,East,84,2.0,3.0,73,0.00,,,0.01,123,Wunderground v.1.15,2013-02-21 12:20:00,
2013-02-21 13:30:00,34.5,26.1,30.25,ESE,102,4.0,5.0,71,0.00,,,0.01,174,Wunderground v.1.15,2013-02-21 12:30:00,
2013-02-21 13:40:00,34.7,26.6,30.25,ENE,61,3.0,3.0,72,0.00,,,0.01,81,Wunderground v.1.15,2013-02-21 12:40:00,
2013-02-21 13:50:00,34.5,26.4,30.25,ENE,70,5.0,12.0,72,0.00,,,0.01,91,Wunderground v.1.15,2013-02-21 12:50:00,
2013-02-21 14:00:00,34.4,26.3,30.25,East,91,4.0,5.0,72,0.00,,,0.01,97,Wunderground v.1.15,2013-02-21 13:00:00,
2013-02-21 14:05:00,34.5,26.7,30.24,NE,43,3.0,5.0,73,0.00,,,0.01,130,Wunderground v.1.15,2013-02-21 13:05:00,
2013-02-21 14:10:00,34.5,26.1,30.24,ESE,110,6.0,6.0,71,0.00,,,0.01,169,Wunderground v.1.15,2013-02-21 13:10:00,
2013-02-21 14:20:00,34.7,25.9,30.24,NE,55,7.0,7.0,70,0.00,,,0.01,156,Wunderground v.1.15,2013-02-21 13:20:00,
2013-02-21 14:25:00,34.6,26.2,30.24,NNW,340,4.0,7.0,71,0.00,,,0.01,151,Wunderground v.1.15,2013-02-21 13:25:00,
2013-02-21 14:30:00,34.5,26.1,30.24,NNE,32,2.0,2.0,71,0.00,,,0.01,128,Wunderground v.1.15,2013-02-21 13:30:00,
2013-02-21 14:40:00,34.1,26.0,30.24,North,350,3.0,3.0,72,0.00,,,0.01,88,Wunderground v.1.15,2013-02-21 13:40:00,
2013-02-21 14:50:00,34.1,26.3,30.23,NW,309,2.0,2.0,73,0.00,,,0.01,125,Wunderground v.1.15,2013-02-21 13:50:00,
2013-02-21 15:00:00,34.2,25.8,30.23,SE,139,2.0,2.0,71,0.00,,,0.01,139,Wunderground v.1.15,2013-02-21 14:00:00,
2013-02-21 15:05:00,34.3,25.2,30.23,NNW,332,2.0,4.0,69,0.00,,,0.01,141,Wunderground v.1.15,2013-02-21 14:05:00,
2013-02-21 15:15:00,34.2,25.8,30.23,ENE,74,2.0,2.0,71,0.00,,,0.01,44,Wunderground v.1.15,2013-02-21 14:15:00,
2013-02-21 15:25:00,33.8,24.7,30.23,ENE,66,2.0,5.0,69,0.00,,,0.01,53,Wunderground v.1.15,2013-02-21 14:25:00,
2013-02-21 15:30:00,33.6,24.5,30.23,ENE,78,3.0,3.0,69,0.00,,,0.01,65,Wunderground v.1.15,2013-02-21 14:30:00,
2013-02-21 15:40:00,33.6,24.9,30.23,North,7,1.0,1.0,70,0.00,,,0.01,97,Wunderground v.1.15,2013-02-21 14:40:00,
2013-02-21 15:50:00,33.9,24.8,30.22,NNE,12,2.0,4.0,69,0.00,,,0.01,120,Wunderground v.1.15,2013-02-21 14:50:00,
2013-02-21 15:55:00,34.2,25.1,30.22,NNE,27,2.0,4.0,69,0.00,,,0.01,137,Wunderground v.1.15,2013-02-21 14:55:00,
2013-02-21 16:05:00,35.4,25.2,30.22,North,2,2.0,4.0,66,0.00,,,0.01,158,Wunderground v.1.15,2013-02-21 15:05:00,
2013-02-21 16:10:00,35.3,25.1,30.22,East,90,2.0,2.0,66,0.00,,,0.01,116,Wunderground v.1.15,2013-02-21 15:10:00,
2013-02-21 16:20:00,34.5,23.9,30.22,NNW,344,2.0,2.0,65,0.00,,,0.01,40,Wunderground v.1.15,2013-02-21 15:20:00,
2013-02-21 16:30:00,34.3,23.7,30.22,North,7,2.0,2.0,65,0.00,,,0.01,95,Wunderground v.1.15,2013-02-21 15:30:00,
2013-02-21 16:40:00,34.1,23.2,30.21,NE,41,3.0,4.0,64,0.00,,,0.01,69,Wunderground v.1.15,2013-02-21 15:40:00,
2013-02-21 16:50:00,33.8,23.3,30.21,NNW,328,2.0,2.0,65,0.00,,,0.01,65,Wunderground v.1.15,2013-02-21 15:50:00,
2013-02-21 17:00:00,33.5,23.4,30.21,ENE,64,2.0,2.0,66,0.00,,,0.01,25,Wunderground v.1.15,2013-02-21 16:00:00,
2013-02-21 17:10:00,33.1,23.0,30.21,North,349,2.0,2.0,66,0.00,,,0.01,30,Wunderground v.1.15,2013-02-21 16:10:00,
2013-02-21 17:15:00,33.0,22.9,30.21,NNW,345,1.0,2.0,66,0.00,,,0.01,26,Wunderground v.1.15,2013-02-21 16:15:00,
2013-02-21 17:20:00,32.9,23.1,30.21,NNE,12,1.0,1.0,67,0.00,,,0.01,21,Wunderground v.1.15,2013-02-21 16:20:00,
2013-02-21 17:30:00,32.8,23.4,30.21,NNE,17,1.0,1.0,68,0.00,,,0.01,21,Wunderground v.1.15,2013-02-21 16:30:00,
2013-02-21 17:40:00,32.7,23.3,30.21,North,2,1.0,2.0,68,0.00,,,0.01,21,Wunderground v.1.15,2013-02-21 16:40:00,
2013-02-21 17:45:00,32.7,23.3,30.20,NNE,31,1.0,2.0,68,0.00,,,0.01,16,Wunderground v.1.15,2013-02-21 16:45:00,
2013-02-21 17:50:00,32.6,23.2,30.20,NNE,12,1.0,1.0,68,0.00,,,0.01,11,Wunderground v.1.15,2013-02-21 16:50:00,
2013-02-21 18:00:00,32.4,23.4,30.21,NNW,340,2.0,2.0,69,0.00,,,0.01,7,Wunderground v.1.15,2013-02-21 17:00:00,
2013-02-21 18:05:00,32.3,23.6,30.20,North,356,1.0,2.0,70,0.00,,,0.01,0,Wunderground v.1.15,2013-02-21 17:05:00,
2013-02-21 18:10:00,32.2,23.8,30.20,NE,43,2.0,2.0,71,0.00,,,0.01,0,Wunderground v.1.15,2013-02-21 17:10:00,
2013-02-21 18:20:00,32.0,24.3,30.20,NNW,345,2.0,2.0,73,0.00,,,0.01,0,Wunderground v.1.15,2013-02-21 17:20:00,
2013-02-21 18:30:00,31.6,23.9,30.20,North,2,2.0,2.0,73,0.00,,,0.01,0,Wunderground v.1.15,2013-02-21 17:30:00,
2013-02-21 18:40:00,31.4,24.1,30.20,East,79,2.0,3.0,74,0.00,,,0.01,0,Wunderground v.1.15,2013-02-21 17:40:00,
2013-02-21 18:50:00,31.2,23.9,30.21,North,353,1.0,1.0,74,0.00,,,0.01,0,Wunderground v.1.15,2013-02-21 17:50:00,
2013-02-21 19:00:00,31.1,24.1,30.21,NNE,26,2.0,2.0,75,0.00,,,0.01,0,Wunderground v.1.15,2013-02-21 18:00:00,
2013-02-21 19:05:00,31.1,24.4,30.21,NNW,332,2.0,2.0,76,0.00,,,0.01,0,Wunderground v.1.15,2013-02-21 18:05:00,
2013-02-21 19:10:00,31.1,24.4,30.21,North,353,1.0,1.0,76,0.00,,,0.01,0,Wunderground v.1.15,2013-02-21 18:10:00,
2013-02-21 19:20:00,31.0,24.3,30.21,North,7,1.0,1.0,76,0.00,,,0.01,0,Wunderground v.1.15,2013-02-21 18:20:00,
2013-02-21 19:30:00,30.9,24.5,30.21,NE,56,1.0,1.0,77,0.00,,,0.01,0,Wunderground v.1.15,2013-02-21 18:30:00,
2013-02-21 19:35:00,30.9,24.5,30.21,North,352,1.0,1.0,77,0.00,,,0.01,0,Wunderground v.1.15,2013-02-21 18:35:00,
2013-02-21 19:40:00,30.8,24.7,30.21,NNW,345,1.0,1.0,78,0.00,,,0.01,0,Wunderground v.1.15,2013-02-21 18:40:00,
2013-02-21 19:45:00,30.8,24.7,30.21,ESE,110,1.0,3.0,78,0.00,,,0.01,0,Wunderground v.1.15,2013-02-21 18:45:00,
2013-02-21 19:50:00,30.8,24.7,30.21,North,355,1.0,1.0,78,0.00,,,0.01,0,Wunderground v.1.15,2013-02-21 18:50:00,
2013-02-21 20:00:00,30.6,24.6,30.21,North,357,1.0,3.0,78,0.00,,,0.01,0,Wunderground v.1.15,2013-02-21 19:00:00,
2013-02-21 20:05:00,30.6,24.6,30.21,NNE,20,1.0,3.0,78,0.00,,,0.01,0,Wunderground v.1.15,2013-02-21 19:05:00,
2013-02-21 20:10:00,30.5,24.5,30.20,NNW,332,1.0,1.0,78,0.00,,,0.01,0,Wunderground v.1.15,2013-02-21 19:10:00,
2013-02-21 20:15:00,30.4,24.7,30.20,North,7,1.0,1.0,79,0.00,,,0.01,0,Wunderground v.1.15,2013-02-21 19:15:00,
2013-02-21 20:20:00,30.3,24.6,30.20,NNE,12,1.0,1.0,79,0.00,,,0.01,0,Wunderground v.1.15,2013-02-21 19:20:00,
2013-02-21 20:30:00,30.2,24.5,30.20,North,351,1.0,1.0,79,0.00,,,0.01,0,Wunderground v.1.15,2013-02-21 19:30:00,
2013-02-21 20:40:00,30.1,24.7,30.20,NNE,12,1.0,1.0,80,0.00,,,0.01,0,Wunderground v.1.15,2013-02-21 19:40:00,
2013-02-21 20:50:00,30.1,24.7,30.20,East,85,1.0,1.0,80,0.00,,,0.01,0,Wunderground v.1.15,2013-02-21 19:50:00,
2013-02-21 21:00:00,30.1,24.7,30.20,ENE,59,1.0,3.0,80,0.00,,,0.01,0,Wunderground v.1.15,2013-02-21 20:00:00,
2013-02-21 21:05:00,30.0,24.9,30.20,East,93,1.0,5.0,81,0.00,,,0.01,0,Wunderground v.1.15,2013-02-21 20:05:00,
2013-02-21 21:10:00,29.9,24.8,30.20,NNE,22,1.0,1.0,81,0.00,,,0.01,0,Wunderground v.1.15,2013-02-21 20:10:00,
2013-02-21 21:15:00,30.1,25.0,30.20,NNE,12,1.0,2.0,81,0.00,,,0.01,0,Wunderground v.1.15,2013-02-21 20:15:00,
2013-02-21 21:25:00,30.1,25.0,30.20,NNE,23,1.0,2.0,81,0.00,,,0.01,0,Wunderground v.1.15,2013-02-21 20:25:00,
2013-02-21 21:35:00,29.9,24.8,30.20,ESE,105,1.0,1.0,81,0.00,,,0.01,0,Wunderground v.1.15,2013-02-21 20:35:00,
2013-02-21 21:40:00,29.9,24.8,30.20,NNE,12,1.0,1.0,81,0.00,,,0.01,0,Wunderground v.1.15,2013-02-21 20:40:00,
2013-02-21 21:50:00,29.9,24.8,30.20,East,85,1.0,3.0,81,0.00,,,0.01,0,Wunderground v.1.15,2013-02-21 20:50:00,
2013-02-21 22:00:00,29.8,24.7,30.20,NNE,26,1.0,1.0,81,0.00,,,0.01,0,Wunderground v.1.15,2013-02-21 21:00:00,
2013-02-21 22:05:00,29.7,24.6,30.19,NNW,342,1.0,1.0,81,0.00,,,0.01,0,Wunderground v.1.15,2013-02-21 21:05:00,
2013-02-21 22:15:00,29.7,24.6,30.19,North,357,1.0,1.0,81,0.00,,,0.01,0,Wunderground v.1.15,2013-02-21 21:15:00,
2013-02-21 22:25:00,29.7,24.6,30.19,NNE,29,1.0,1.0,81,0.00,,,0.01,0,Wunderground v.1.15,2013-02-21 21:25:00,
2013-02-21 22:30:00,29.7,24.6,30.19,ENE,72,1.0,1.0,81,0.00,,,0.01,0,Wunderground v.1.15,2013-02-21 21:30:00,
2013-02-21 22:35:00,29.6,24.5,30.19,NNE,29,1.0,1.0,81,0.00,,,0.01,0,Wunderground v.1.15,2013-02-21 21:35:00,
2013-02-21 22:45:00,29.3,24.5,30.19,North,2,1.0,1.0,82,0.00,,,0.01,0,Wunderground v.1.15,2013-02-21 21:45:00,
2013-02-21 22:55:00,29.1,24.3,30.19,NNW,338,1.0,1.0,82,0.00,,,0.01,0,Wunderground v.1.15,2013-02-21 21:55:00,
2013-02-21 23:00:00,29.0,24.5,30.19,NNW,346,1.0,1.0,83,0.00,,,0.01,0,Wunderground v.1.15,2013-02-21 22:00:00,
2013-02-21 23:05:00,28.9,24.4,30.19,North,357,1.0,1.0,83,0.00,,,0.01,0,Wunderground v.1.15,2013-02-21 22:05:00,
2013-02-21 23:10:00,28.8,24.3,30.19,North,354,1.0,1.0,83,0.00,,,0.01,0,Wunderground v.1.15,2013-02-21 22:10:00,
2013-02-21 23:20:00,28.6,24.1,30.19,NNE,18,0.0,0.0,83,0.00,,,0.01,0,Wunderground v.1.15,2013-02-21 22:20:00,
2013-02-21 23:30:00,28.5,24.3,30.18,NNE,12,1.0,4.0,84,0.00,,,0.01,0,Wunderground v.1.15,2013-02-21 22:30:00,
2013-02-21 23:40:00,28.4,24.2,30.19,North,7,1.0,1.0,84,0.00,,,0.01,0,Wunderground v.1.15,2013-02-21 22:40:00,
2013-02-21 23:50:00,28.3,24.1,30.18,North,354,1.0,2.0,84,0.00,,,0.01,0,Wunderground v.1.15,2013-02-21 22:50:00,